Time,TemperatureF,DewpointF,PressureIn,WindDirection,WindDirectionDegrees,WindSpeedMPH,WindSpeedGustMPH,Humidity,HourlyPrecipIn,Conditions,Clouds,dailyrainin,SoftwareType,DateUTC
2013-03-09 00:01:00,45.0,44.0,29.54,North,0,0.0,0.0,98,0.03,,,0.37,,2013-03-09 00:01:00,
2013-03-09 00:11:00,45.0,44.0,29.54,North,0,0.0,0.0,98,0.03,,,0.37,,2013-03-09 00:11:00,
2013-03-09 00:21:00,45.0,44.0,29.54,North,0,0.0,0.0,98,0.04,,,0.39,,2013-03-09 00:21:00,
2013-03-09 00:31:00,45.0,44.0,29.54,North,0,0.0,0.0,98,0.04,,,0.39,,2013-03-09 00:31:00,
2013-03-09 00:41:00,45.0,44.0,29.54,North,0,0.0,0.0,98,0.04,,,0.39,,2013-03-09 00:41:00,
2013-03-09 00:52:00,45.0,44.0,29.54,North,0,0.0,1.0,98,0.04,,,0.40,,2013-03-09 00:52:00,
2013-03-09 01:01:00,45.0,44.0,29.54,North,0,0.0,1.0,98,0.03,,,0.41,,2013-03-09 01:01:00,
2013-03-09 01:12:00,45.0,44.0,29.54,North,0,0.0,1.0,98,0.03,,,0.41,,2013-03-09 01:12:00,
2013-03-09 01:21:00,45.0,44.0,29.54,North,0,0.0,1.0,98,0.03,,,0.41,,2013-03-09 01:21:00,
2013-03-09 01:31:00,44.0,43.0,29.54,North,0,0.0,2.0,98,0.02,,,0.42,,2013-03-09 01:31:00,
2013-03-09 01:41:00,44.0,43.0,29.54,North,0,0.0,2.0,98,0.02,,,0.42,,2013-03-09 01:41:00,
2013-03-09 01:52:00,44.0,43.0,29.54,North,0,0.0,1.0,98,0.02,,,0.42,,2013-03-09 01:52:00,
2013-03-09 02:01:00,44.0,43.0,29.54,North,0,0.0,1.0,98,0.01,,,0.42,,2013-03-09 02:01:00,
2013-03-09 02:11:00,44.0,43.0,29.54,North,0,0.0,1.0,98,0.01,,,0.42,,2013-03-09 02:11:00,
2013-03-09 02:21:00,44.0,43.0,29.54,North,0,0.0,1.0,98,0.01,,,0.42,,2013-03-09 02:21:00,
2013-03-09 02:31:00,44.0,43.0,29.54,North,0,0.0,1.0,98,0.01,,,0.42,,2013-03-09 02:31:00,
2013-03-09 02:41:00,43.0,42.0,29.54,North,0,0.0,1.0,98,0.03,,,0.45,,2013-03-09 02:41:00,
2013-03-09 02:51:00,43.0,42.0,29.54,North,0,0.0,1.0,98,0.03,,,0.45,,2013-03-09 02:51:00,
2013-03-09 03:01:00,43.0,42.0,29.54,North,0,0.0,1.0,98,0.03,,,0.45,,2013-03-09 03:01:00,
2013-03-09 03:11:00,43.0,42.0,29.54,North,0,0.0,1.0,98,0.03,,,0.45,,2013-03-09 03:11:00,
2013-03-09 03:21:00,43.0,42.0,29.54,North,0,0.0,1.0,98,0.05,,,0.47,,2013-03-09 03:21:00,
2013-03-09 03:31:00,43.0,42.0,29.54,North,0,0.0,1.0,98,0.05,,,0.48,,2013-03-09 03:31:00,
2013-03-09 03:41:00,43.0,42.0,29.54,North,0,0.0,1.0,98,0.05,,,0.48,,2013-03-09 03:41:00,
2013-03-09 03:52:00,42.0,41.0,29.53,North,0,0.0,2.0,98,0.04,,,0.49,,2013-03-09 03:52:00,
2013-03-09 04:01:00,42.0,41.0,29.53,North,0,0.0,2.0,98,0.04,,,0.49,,2013-03-09 04:01:00,
2013-03-09 04:11:00,42.0,41.0,29.53,North,0,0.0,2.0,98,0.04,,,0.49,,2013-03-09 04:11:00,
2013-03-09 04:21:00,42.0,41.0,29.53,North,0,0.0,2.0,98,0.04,,,0.49,,2013-03-09 04:21:00,
2013-03-09 04:31:00,42.0,41.0,29.53,North,0,0.0,1.0,98,0.01,,,0.50,,2013-03-09 04:31:00,
2013-03-09 04:42:00,42.0,41.0,29.53,North,0,0.0,1.0,98,0.01,,,0.50,,2013-03-09 04:42:00,
2013-03-09 04:52:00,42.0,41.0,29.53,North,0,0.0,1.0,98,0.01,,,0.50,,2013-03-09 04:52:00,
2013-03-09 05:01:00,42.0,41.0,29.53,North,0,0.0,2.0,98,0.00,,,0.50,,2013-03-09 05:01:00,
2013-03-09 05:11:00,42.0,41.0,29.53,North,0,0.0,2.0,98,0.00,,,0.50,,2013-03-09 05:11:00,
2013-03-09 05:21:00,42.0,41.0,29.53,North,0,0.0,4.0,98,0.00,,,0.50,,2013-03-09 05:21:00,
2013-03-09 05:31:00,41.0,40.0,29.54,North,0,0.0,2.0,98,0.00,,,0.50,,2013-03-09 05:31:00,
2013-03-09 05:42:00,41.0,40.0,29.54,North,0,0.0,2.0,98,0.00,,,0.50,,2013-03-09 05:42:00,
2013-03-09 05:52:00,41.0,40.0,29.54,North,0,0.0,2.0,98,0.00,,,0.50,,2013-03-09 05:52:00,
2013-03-09 06:01:00,41.0,40.0,29.54,North,0,0.0,2.0,98,0.00,,,0.50,,2013-03-09 06:01:00,
2013-03-09 06:11:00,42.0,41.0,29.54,North,0,0.0,1.0,98,0.00,,,0.50,,2013-03-09 06:11:00,
2013-03-09 06:22:00,42.0,41.0,29.54,North,0,0.0,1.0,98,0.00,,,0.50,,2013-03-09 06:22:00,
2013-03-09 06:32:00,42.0,41.0,29.54,North,0,0.0,1.0,98,0.00,,,0.50,,2013-03-09 06:32:00,
2013-03-09 06:42:00,42.0,41.0,29.54,North,0,0.0,1.0,98,0.00,,,0.50,,2013-03-09 06:42:00,
2013-03-09 06:52:00,41.0,40.0,29.54,North,0,0.0,1.0,98,0.00,,,0.50,,2013-03-09 06:52:00,
2013-03-09 07:01:00,41.0,40.0,29.54,North,0,0.0,2.0,98,0.00,,,0.50,,2013-03-09 07:01:00,
2013-03-09 07:11:00,41.0,40.0,29.54,North,0,0.0,2.0,98,0.00,,,0.50,,2013-03-09 07:11:00,
2013-03-09 07:21:00,41.0,40.0,29.55,North,0,0.0,1.0,98,0.00,,,0.50,,2013-03-09 07:21:00,
2013-03-09 07:31:00,41.0,40.0,29.55,North,0,0.0,1.0,98,0.00,,,0.50,,2013-03-09 07:31:00,
2013-03-09 07:41:00,41.0,40.0,29.55,North,0,0.0,1.0,98,0.00,,,0.50,,2013-03-09 07:41:00,
2013-03-09 07:52:00,41.0,40.0,29.56,North,0,0.0,1.0,98,0.00,,,0.50,,2013-03-09 07:52:00,
2013-03-09 08:01:00,41.0,40.0,29.56,North,0,0.0,3.0,98,0.00,,,0.50,,2013-03-09 08:01:00,
2013-03-09 08:11:00,41.0,40.0,29.56,North,0,0.0,3.0,98,0.00,,,0.50,,2013-03-09 08:11:00,
2013-03-09 08:21:00,41.0,40.0,29.56,North,0,0.0,3.0,98,0.00,,,0.50,,2013-03-09 08:21:00,
2013-03-09 08:31:00,42.0,41.0,29.56,North,0,0.0,1.0,98,0.00,,,0.50,,2013-03-09 08:31:00,
2013-03-09 08:41:00,42.0,41.0,29.56,North,0,0.0,1.0,98,0.00,,,0.50,,2013-03-09 08:41:00,
2013-03-09 08:52:00,42.0,41.0,29.57,North,0,0.0,2.0,98,0.00,,,0.50,,2013-03-09 08:52:00,
2013-03-09 09:01:00,42.0,41.0,29.58,North,0,0.0,1.0,98,0.00,,,0.50,,2013-03-09 09:01:00,
2013-03-09 09:11:00,42.0,41.0,29.58,North,0,0.0,1.0,98,0.00,,,0.50,,2013-03-09 09:11:00,
2013-03-09 09:21:00,42.0,41.0,29.58,North,0,0.0,1.0,98,0.00,,,0.50,,2013-03-09 09:21:00,
2013-03-09 09:31:00,42.0,41.0,29.58,North,0,0.0,1.0,98,0.00,,,0.50,,2013-03-09 09:31:00,
2013-03-09 09:41:00,42.0,41.0,29.58,North,0,0.0,1.0,98,0.00,,,0.50,,2013-03-09 09:41:00,
2013-03-09 09:52:00,42.0,41.0,29.58,North,0,0.0,2.0,98,0.00,,,0.50,,2013-03-09 09:52:00,
2013-03-09 10:01:00,42.0,41.0,29.58,North,0,0.0,2.0,98,0.00,,,0.50,,2013-03-09 10:01:00,
2013-03-09 10:11:00,42.0,41.0,29.58,North,0,0.0,2.0,98,0.00,,,0.50,,2013-03-09 10:11:00,
2013-03-09 10:21:00,42.0,41.0,29.58,North,0,0.0,2.0,97,0.00,,,0.49,,2013-03-09 10:21:00,
2013-03-09 10:31:00,42.0,41.0,29.59,North,0,0.0,1.0,97,0.00,,,0.48,,2013-03-09 10:31:00,
2013-03-09 10:41:00,42.0,41.0,29.59,North,0,0.0,1.0,97,0.00,,,0.48,,2013-03-09 10:41:00,
2013-03-09 10:51:00,42.0,41.0,29.59,North,0,0.0,3.0,97,0.00,,,0.46,,2013-03-09 10:51:00,
2013-03-09 11:01:00,42.0,41.0,29.59,North,0,0.0,3.0,97,0.00,,,0.46,,2013-03-09 11:01:00,
2013-03-09 11:11:00,42.0,41.0,29.59,North,0,0.0,3.0,97,0.00,,,0.46,,2013-03-09 11:11:00,
2013-03-09 11:21:00,42.0,41.0,29.59,North,0,0.0,3.0,97,0.00,,,0.46,,2013-03-09 11:21:00,
2013-03-09 11:31:00,43.0,42.0,29.59,North,0,0.0,2.0,97,0.00,,,0.42,,2013-03-09 11:31:00,
2013-03-09 11:42:00,43.0,42.0,29.59,North,0,0.0,2.0,97,0.00,,,0.42,,2013-03-09 11:42:00,
2013-03-09 11:52:00,43.0,42.0,29.59,North,0,0.0,2.0,97,0.00,,,0.42,,2013-03-09 11:52:00,
2013-03-09 12:01:00,43.0,42.0,29.59,North,0,0.0,3.0,96,0.00,,,0.41,,2013-03-09 12:01:00,
2013-03-09 12:11:00,43.0,42.0,29.59,North,0,0.0,3.0,96,0.00,,,0.41,,2013-03-09 12:11:00,
2013-03-09 12:21:00,43.0,42.0,29.59,North,0,0.0,2.0,96,0.00,,,0.40,,2013-03-09 12:21:00,
2013-03-09 12:31:00,43.0,42.0,29.59,North,0,0.0,1.0,96,0.00,,,0.39,,2013-03-09 12:31:00,
2013-03-09 12:42:00,43.0,42.0,29.59,North,0,0.0,1.0,96,0.00,,,0.39,,2013-03-09 12:42:00,
2013-03-09 12:52:00,43.0,42.0,29.59,North,0,0.0,1.0,96,0.00,,,0.39,,2013-03-09 12:52:00,
2013-03-09 13:02:00,43.0,42.0,29.59,North,0,0.0,1.0,96,0.00,,,0.39,,2013-03-09 13:02:00,
2013-03-09 13:11:00,43.0,42.0,29.59,North,0,0.0,1.0,96,0.00,,,0.39,,2013-03-09 13:11:00,
2013-03-09 13:22:00,43.0,42.0,29.59,North,0,0.0,3.0,95,0.00,,,0.36,,2013-03-09 13:22:00,
2013-03-09 13:32:00,43.0,42.0,29.59,North,0,0.0,3.0,95,0.00,,,0.36,,2013-03-09 13:32:00,
2013-03-09 13:42:00,43.0,42.0,29.59,North,0,0.0,3.0,95,0.00,,,0.36,,2013-03-09 13:42:00,
2013-03-09 13:52:00,43.0,41.0,29.59,North,0,0.0,3.0,94,0.00,,,0.34,,2013-03-09 13:52:00,
2013-03-09 14:01:00,43.0,41.0,29.59,North,0,0.0,2.0,94,0.00,,,0.32,,2013-03-09 14:01:00,
2013-03-09 14:11:00,43.0,41.0,29.59,North,0,0.0,2.0,94,0.00,,,0.32,,2013-03-09 14:11:00,
2013-03-09 14:21:00,43.0,41.0,29.59,NW,323,1.0,5.0,93,0.00,,,0.31,,2013-03-09 14:21:00,
2013-03-09 14:31:00,43.0,41.0,29.59,NW,323,1.0,5.0,93,0.00,,,0.31,,2013-03-09 14:31:00,
2013-03-09 14:41:00,43.0,41.0,29.59,NW,323,1.0,5.0,93,0.00,,,0.31,,2013-03-09 14:41:00,
2013-03-09 14:52:00,43.0,41.0,29.59,NW,323,1.0,5.0,93,0.00,,,0.31,,2013-03-09 14:52:00,
2013-03-09 15:01:00,44.0,42.0,29.60,North,0,0.0,2.0,91,0.00,,,0.29,,2013-03-09 15:01:00,
2013-03-09 15:11:00,44.0,42.0,29.60,North,0,0.0,2.0,91,0.00,,,0.29,,2013-03-09 15:11:00,
2013-03-09 15:22:00,44.0,42.0,29.60,North,0,0.0,2.0,91,0.00,,,0.29,,2013-03-09 15:22:00,
2013-03-09 15:31:00,43.0,41.0,29.60,NNW,336,1.0,3.0,91,0.00,,,0.28,,2013-03-09 15:31:00,
2013-03-09 15:42:00,43.0,41.0,29.60,NNW,336,1.0,3.0,91,0.00,,,0.28,,2013-03-09 15:42:00,
2013-03-09 15:52:00,43.0,41.0,29.60,North,0,0.0,2.0,91,0.00,,,0.27,,2013-03-09 15:52:00,
2013-03-09 16:01:00,43.0,40.0,29.60,North,0,0.0,3.0,90,0.00,,,0.26,,2013-03-09 16:01:00,
2013-03-09 16:11:00,43.0,40.0,29.60,North,0,0.0,3.0,90,0.00,,,0.26,,2013-03-09 16:11:00,
2013-03-09 16:21:00,43.0,40.0,29.60,North,0,0.0,3.0,90,0.00,,,0.26,,2013-03-09 16:21:00,
2013-03-09 16:31:00,43.0,40.0,29.60,North,0,0.0,3.0,90,0.00,,,0.26,,2013-03-09 16:31:00,
2013-03-09 16:41:00,43.0,40.0,29.60,North,0,0.0,3.0,90,0.00,,,0.26,,2013-03-09 16:41:00,
2013-03-09 16:52:00,43.0,41.0,29.61,North,0,0.0,2.0,91,0.00,,,0.25,,2013-03-09 16:52:00,
2013-03-09 17:01:00,43.0,41.0,29.61,North,0,0.0,2.0,91,0.00,,,0.25,,2013-03-09 17:01:00,
2013-03-09 17:11:00,43.0,41.0,29.61,North,0,0.0,2.0,91,0.00,,,0.25,,2013-03-09 17:11:00,
2013-03-09 17:21:00,42.0,39.0,29.61,NNW,337,1.0,5.0,90,0.00,,,0.24,,2013-03-09 17:21:00,
2013-03-09 17:31:00,42.0,39.0,29.62,North,0,0.0,4.0,90,0.00,,,0.24,,2013-03-09 17:31:00,
2013-03-09 17:42:00,42.0,39.0,29.62,North,0,0.0,4.0,90,0.00,,,0.24,,2013-03-09 17:42:00,
2013-03-09 17:52:00,42.0,39.0,29.62,North,0,0.0,6.0,90,0.00,,,0.23,,2013-03-09 17:52:00,
2013-03-09 18:01:00,42.0,39.0,29.62,North,0,0.0,6.0,90,0.00,,,0.23,,2013-03-09 18:01:00,
2013-03-09 18:11:00,42.0,39.0,29.62,North,0,0.0,6.0,90,0.00,,,0.23,,2013-03-09 18:11:00,
2013-03-09 18:21:00,42.0,39.0,29.62,NW,315,1.0,6.0,90,0.00,,,0.23,,2013-03-09 18:21:00,
2013-03-09 18:31:00,42.0,39.0,29.63,ESE,107,1.0,5.0,90,0.00,,,0.22,,2013-03-09 18:31:00,
2013-03-09 18:42:00,42.0,39.0,29.63,ESE,107,1.0,5.0,90,0.00,,,0.22,,2013-03-09 18:42:00,
2013-03-09 18:52:00,42.0,39.0,29.63,ESE,107,1.0,5.0,90,0.00,,,0.22,,2013-03-09 18:52:00,
2013-03-09 19:01:00,41.0,38.0,29.63,North,0,0.0,3.0,90,0.00,,,0.22,,2013-03-09 19:01:00,
2013-03-09 19:11:00,41.0,38.0,29.63,North,0,0.0,3.0,90,0.00,,,0.22,,2013-03-09 19:11:00,
2013-03-09 19:22:00,41.0,38.0,29.64,ENE,71,1.0,6.0,90,0.00,,,0.22,,2013-03-09 19:22:00,
2013-03-09 19:31:00,40.0,38.0,29.64,WNW,297,1.0,4.0,91,0.00,,,0.22,,2013-03-09 19:31:00,
2013-03-09 19:41:00,40.0,38.0,29.64,WNW,297,1.0,4.0,91,0.00,,,0.22,,2013-03-09 19:41:00,
2013-03-09 19:51:00,40.0,38.0,29.64,WNW,297,1.0,4.0,91,0.00,,,0.22,,2013-03-09 19:51:00,
2013-03-09 20:01:00,40.0,38.0,29.64,WNW,297,1.0,4.0,91,0.00,,,0.22,,2013-03-09 20:01:00,
2013-03-09 20:11:00,40.0,38.0,29.64,WNW,297,1.0,4.0,91,0.00,,,0.22,,2013-03-09 20:11:00,
2013-03-09 20:22:00,40.0,38.0,29.65,NE,43,1.0,4.0,91,0.00,,,0.21,,2013-03-09 20:22:00,
2013-03-09 20:32:00,40.0,38.0,29.65,NE,43,1.0,4.0,91,0.00,,,0.21,,2013-03-09 20:32:00,
2013-03-09 20:42:00,40.0,38.0,29.65,NE,43,1.0,4.0,91,0.00,,,0.21,,2013-03-09 20:42:00,
2013-03-09 20:52:00,40.0,38.0,29.65,North,0,0.0,2.0,91,0.00,,,0.21,,2013-03-09 20:52:00,
2013-03-09 21:01:00,39.0,36.0,29.65,North,0,0.0,4.0,90,0.00,,,0.21,,2013-03-09 21:01:00,
2013-03-09 21:11:00,39.0,36.0,29.65,North,0,0.0,4.0,90,0.00,,,0.21,,2013-03-09 21:11:00,
2013-03-09 21:21:00,39.0,36.0,29.65,North,0,0.0,3.0,89,0.00,,,0.21,,2013-03-09 21:21:00,
2013-03-09 21:31:00,39.0,36.0,29.65,North,0,0.0,3.0,89,0.00,,,0.21,,2013-03-09 21:31:00,
2013-03-09 21:41:00,39.0,36.0,29.65,North,0,0.0,3.0,89,0.00,,,0.21,,2013-03-09 21:41:00,
2013-03-09 21:52:00,38.0,35.0,29.65,North,0,0.0,3.0,89,0.00,,,0.20,,2013-03-09 21:52:00,
2013-03-09 22:01:00,38.0,35.0,29.65,North,0,0.0,4.0,88,0.00,,,0.19,,2013-03-09 22:01:00,
2013-03-09 22:11:00,38.0,35.0,29.65,North,0,0.0,4.0,88,0.00,,,0.19,,2013-03-09 22:11:00,
2013-03-09 22:21:00,38.0,35.0,29.65,North,0,0.0,4.0,88,0.00,,,0.19,,2013-03-09 22:21:00,
2013-03-09 22:32:00,38.0,35.0,29.66,North,0,0.0,2.0,89,0.00,,,0.17,,2013-03-09 22:32:00,
2013-03-09 22:41:00,38.0,35.0,29.66,North,0,0.0,2.0,89,0.00,,,0.17,,2013-03-09 22:41:00,
2013-03-09 22:52:00,38.0,35.0,29.66,North,349,1.0,6.0,88,0.00,,,0.17,,2013-03-09 22:52:00,
2013-03-09 23:01:00,38.0,35.0,29.66,North,0,0.0,5.0,88,0.00,,,0.16,,2013-03-09 23:01:00,
2013-03-09 23:11:00,38.0,35.0,29.66,North,0,0.0,5.0,88,0.00,,,0.16,,2013-03-09 23:11:00,
2013-03-09 23:21:00,38.0,35.0,29.66,North,0,0.0,5.0,88,0.00,,,0.16,,2013-03-09 23:21:00,
2013-03-09 23:31:00,38.0,35.0,29.66,North,0,0.0,5.0,89,0.00,,,0.15,,2013-03-09 23:31:00,
2013-03-09 23:41:00,38.0,35.0,29.66,North,0,0.0,5.0,89,0.00,,,0.15,,2013-03-09 23:41:00,
2013-03-09 23:52:00,37.0,34.0,29.66,North,0,0.0,2.0,90,0.00,,,0.14,,2013-03-09 23:52:00,